Location: Newark
(42.8481°N, 0.4872°E)
Time: 16:58:53
(UTC+00:00)

A-11 Canister half - Pass Details

Date: 30 October 2020
Orbit: 1525 x 1683 km, 47.3° (Epoch: 22 November)

Event Time Altitude Azimuth Distance (km) Brightness Sun altitude
Rises 11:26:43 0° 186° (S) 4,838 12.7 33.0°
Reaches altitude 10° 11:30:53 10° 171° (S) 3,827 12.6 33.1°
Maximum altitude 11:37:30 21° 127° (SE) 3,007 11.3 33.1°
Drops below altitude 10° 11:44:00 10° 83° (E) 3,753 11.1 33.1°
Sets 11:47:59 0° 69° (ENE) 4,718 11.4 33.1°
